Tracking 27107 objects as of 21-Mar-2023
HD Live streaming from Space Station
objects crossing your sky now

SL-8 DEB

Track SL-8 DEB now!
10-day predictions


NORAD ID: 21724
Int'l Code: 1991-009BZ
Perigee: 1,432.1 km
Apogee: 1,763.3 km
Inclination: 74.0 °
Period: 118.0 minutes
Semi major axis: 7968 km
RCS: 0.1023 m2 (medium)
Launch date: February 12, 1991
Source: Commonwealth of Independent States (former USSR) (CIS)
Launch site: PLESETSK MISSILE AND SPACE COMPLEX (PKMTR)

Note: This is SATELLITE DEBRIS
Your satellite tracking list
Your tracking list is empty




NASA's NSSDC Master Catalog

Two Line Element Set (TLE):
1 21724U 91009BZ  23079.22579473  .00000172  00000-0  16848-2 0  9994
2 21724  73.9802 170.3010 0207830 221.1004 166.3642 12.20460543402044
Source of the keplerian elements: AFSPC